TimeAKST,TemperatureF,Dew PointF,Humidity,Sea Level PressureIn,VisibilityMPH,Wind Direction,Wind SpeedMPH,Gust SpeedMPH,PrecipitationIn,Events,Conditions,WindDirDegrees,DateUTC
12:16 AM,5.0,-0.4,78,29.45,10.0,NE,10.4,-,N/A,,Overcast,50,2013-01-07 09:16:00
12:36 AM,5.0,-2.2,72,29.45,7.0,NE,11.5,-,N/A,,Overcast,40,2013-01-07 09:36:00
12:56 AM,5.0,-0.4,78,29.45,4.0,NE,10.4,-,N/A,,Overcast,50,2013-01-07 09:56:00
1:16 AM,5.0,-0.4,78,29.44,9.0,NE,9.2,-,N/A,,Overcast,50,2013-01-07 10:16:00
1:36 AM,5.0,-0.4,78,29.44,10.0,ENE,9.2,16.1,N/A,,Overcast,70,2013-01-07 10:36:00
1:56 AM,5.0,-0.4,78,29.44,10.0,ENE,10.4,-,N/A,,Mostly Cloudy,60,2013-01-07 10:56:00
2:16 AM,5.0,-0.4,78,29.44,10.0,NE,8.1,-,N/A,,Overcast,50,2013-01-07 11:16:00
2:36 AM,5.0,1.4,85,29.43,10.0,NE,11.5,-,N/A,,Overcast,50,2013-01-07 11:36:00
2:56 AM,6.8,-0.4,72,29.42,10.0,NE,12.7,-,N/A,,Overcast,50,2013-01-07 11:56:00
3:16 AM,5.0,-0.4,78,29.42,5.0,NE,10.4,-,N/A,,Overcast,50,2013-01-07 12:16:00
3:36 AM,5.0,-0.4,78,29.41,7.0,NE,9.2,-,N/A,,Overcast,50,2013-01-07 12:36:00
3:56 AM,5.0,-0.4,78,29.41,8.0,NE,11.5,-,N/A,,Overcast,50,2013-01-07 12:56:00
4:16 AM,5.0,1.4,85,29.42,5.0,ENE,9.2,-,N/A,,Overcast,60,2013-01-07 13:16:00
4:36 AM,5.0,-0.4,78,29.42,8.0,NE,10.4,-,N/A,,Scattered Clouds,50,2013-01-07 13:36:00
4:56 AM,5.0,-0.4,78,29.42,10.0,ENE,8.1,-,N/A,,Mostly Cloudy,60,2013-01-07 13:56:00
5:16 AM,5.0,-0.4,78,29.41,10.0,NE,10.4,-,N/A,,Overcast,50,2013-01-07 14:16:00
5:36 AM,5.0,-0.4,78,29.41,10.0,NE,9.2,16.1,N/A,,Overcast,50,2013-01-07 14:36:00
5:56 AM,5.0,-0.4,78,29.40,10.0,NE,9.2,-,N/A,,Mostly Cloudy,50,2013-01-07 14:56:00
6:16 AM,5.0,-0.4,78,29.40,10.0,NE,10.4,-,N/A,,Clear,50,2013-01-07 15:16:00
6:36 AM,5.0,-0.4,78,29.40,10.0,NE,11.5,-,N/A,,Clear,50,2013-01-07 15:36:00
6:56 AM,5.0,-0.4,78,29.40,10.0,ENE,8.1,-,N/A,,Partly Cloudy,70,2013-01-07 15:56:00
7:16 AM,5.0,-0.4,78,29.40,10.0,ENE,9.2,-,N/A,,Mostly Cloudy,60,2013-01-07 16:16:00
7:36 AM,5.0,-0.4,78,29.40,10.0,ENE,9.2,-,N/A,,Scattered Clouds,60,2013-01-07 16:36:00
7:56 AM,5.0,-0.4,78,29.40,10.0,ENE,8.1,-,N/A,,Clear,60,2013-01-07 16:56:00
8:16 AM,5.0,-0.4,78,29.40,10.0,ENE,8.1,-,N/A,,Clear,60,2013-01-07 17:16:00
8:36 AM,5.0,-0.4,78,29.41,10.0,ENE,5.8,-,N/A,,Clear,60,2013-01-07 17:36:00
8:56 AM,3.2,-2.2,78,29.41,10.0,NE,5.8,-,N/A,,Mostly Cloudy,50,2013-01-07 17:56:00
9:16 AM,3.2,1.4,92,29.41,10.0,NE,4.6,-,N/A,,Mostly Cloudy,50,2013-01-07 18:16:00
9:36 AM,6.8,1.4,79,29.42,10.0,ENE,4.6,-,N/A,,Mostly Cloudy,70,2013-01-07 18:36:00
9:56 AM,6.8,1.4,79,29.42,10.0,ENE,3.5,-,N/A,,Mostly Cloudy,70,2013-01-07 18:56:00
10:16 AM,6.8,3.2,85,29.42,10.0,NE,6.9,-,N/A,,Mostly Cloudy,40,2013-01-07 19:16:00
10:36 AM,6.8,3.2,85,29.42,10.0,NE,6.9,-,N/A,,Mostly Cloudy,40,2013-01-07 19:36:00
10:56 AM,6.8,3.2,85,29.42,10.0,NE,6.9,-,N/A,,Overcast,50,2013-01-07 19:56:00
11:16 AM,8.6,3.2,79,29.42,10.0,NE,8.1,-,N/A,,Overcast,50,2013-01-07 20:16:00
11:36 AM,8.6,3.2,79,29.43,10.0,NE,9.2,-,N/A,,Overcast,50,2013-01-07 20:36:00
11:56 AM,8.6,3.2,79,29.43,10.0,ENE,8.1,-,N/A,,Overcast,60,2013-01-07 20:56:00
12:16 PM,8.6,1.4,73,29.44,10.0,ENE,8.1,-,N/A,,Overcast,60,2013-01-07 21:16:00
12:36 PM,8.6,1.4,73,29.44,10.0,NE,10.4,-,N/A,,Overcast,50,2013-01-07 21:36:00
12:56 PM,8.6,3.2,79,29.44,10.0,ENE,10.4,-,N/A,,Overcast,60,2013-01-07 21:56:00
1:16 PM,10.4,3.2,73,29.44,10.0,ENE,6.9,-,N/A,,Overcast,70,2013-01-07 22:16:00
1:36 PM,10.4,3.2,73,29.45,10.0,ENE,5.8,-,N/A,,Overcast,70,2013-01-07 22:36:00
1:56 PM,10.4,3.2,73,29.45,10.0,ENE,5.8,-,N/A,,Overcast,70,2013-01-07 22:56:00
2:16 PM,10.4,3.2,73,29.46,10.0,ENE,8.1,-,N/A,,Overcast,60,2013-01-07 23:16:00
2:36 PM,10.4,3.2,73,29.46,10.0,ENE,8.1,-,N/A,,Overcast,60,2013-01-07 23:36:00
2:56 PM,10.4,3.2,73,29.46,10.0,NE,10.4,-,N/A,,Overcast,50,2013-01-07 23:56:00
3:16 PM,10.4,3.2,73,29.46,10.0,ENE,10.4,-,N/A,,Overcast,60,2013-01-08 00:16:00
3:36 PM,10.4,1.4,67,29.46,10.0,ENE,6.9,-,N/A,,Mostly Cloudy,60,2013-01-08 00:36:00
3:56 PM,8.6,3.2,79,29.46,10.0,NE,6.9,-,N/A,,Scattered Clouds,40,2013-01-08 00:56:00
4:16 PM,8.6,3.2,79,29.47,10.0,ENE,6.9,-,N/A,,Scattered Clouds,60,2013-01-08 01:16:00
4:36 PM,8.6,1.4,73,29.47,10.0,NE,5.8,-,N/A,,Scattered Clouds,50,2013-01-08 01:36:00
4:56 PM,8.6,1.4,73,29.48,10.0,NE,6.9,-,N/A,,Mostly Cloudy,40,2013-01-08 01:56:00
5:16 PM,8.6,3.2,79,29.48,10.0,NE,8.1,-,N/A,,Mostly Cloudy,50,2013-01-08 02:16:00
5:36 PM,8.6,1.4,73,29.48,10.0,NE,8.1,-,N/A,,Overcast,50,2013-01-08 02:36:00
5:56 PM,8.6,1.4,73,29.49,10.0,NE,10.4,-,N/A,,Overcast,50,2013-01-08 02:56:00
6:16 PM,8.6,1.4,73,29.49,10.0,NE,11.5,-,N/A,,Overcast,50,2013-01-08 03:16:00
6:56 PM,8.6,-0.4,67,29.49,10.0,NE,10.4,-,N/A,,Overcast,40,2013-01-08 03:56:00
7:16 PM,6.8,-0.4,72,29.49,10.0,NE,9.2,-,N/A,,Overcast,50,2013-01-08 04:16:00
7:36 PM,6.8,-0.4,72,29.50,10.0,NE,9.2,-,N/A,,Overcast,50,2013-01-08 04:36:00
7:56 PM,6.8,-0.4,72,29.51,10.0,NE,8.1,-,N/A,,Overcast,40,2013-01-08 04:56:00
8:16 PM,6.8,-0.4,72,29.52,10.0,NE,9.2,-,N/A,,Overcast,50,2013-01-08 05:16:00
8:36 PM,6.8,-0.4,72,29.52,10.0,NE,8.1,-,N/A,,Overcast,50,2013-01-08 05:36:00
8:56 PM,6.8,-0.4,72,29.53,10.0,NE,6.9,-,N/A,,Overcast,50,2013-01-08 05:56:00
9:16 PM,5.0,-0.4,78,29.54,10.0,NE,8.1,-,N/A,,Overcast,40,2013-01-08 06:16:00
9:36 PM,6.8,-0.4,72,29.54,10.0,NE,5.8,-,N/A,,Overcast,50,2013-01-08 06:36:00
9:56 PM,6.8,-2.2,67,29.55,10.0,NE,6.9,-,N/A,,Overcast,40,2013-01-08 06:56:00
10:16 PM,6.8,-0.4,72,29.55,10.0,NE,8.1,-,N/A,,Overcast,40,2013-01-08 07:16:00
10:36 PM,6.8,-0.4,72,29.55,10.0,NE,10.4,-,N/A,,Overcast,50,2013-01-08 07:36:00
10:56 PM,6.8,-0.4,72,29.56,10.0,NE,6.9,-,N/A,,Overcast,50,2013-01-08 07:56:00
11:16 PM,6.8,-0.4,72,29.56,10.0,NE,5.8,-,N/A,,Overcast,50,2013-01-08 08:16:00
11:36 PM,6.8,-0.4,72,29.57,10.0,NE,6.9,-,N/A,,Overcast,50,2013-01-08 08:36:00
11:56 PM,6.8,-0.4,72,29.58,10.0,NE,8.1,-,N/A,,Overcast,50,2013-01-08 08:56:00